Flag for U.S.A. Weather past 2 weeks in Urbana, Illinois, U.S.A.

Now
68 °F

Passing clouds.


Feels Like: 68 °F
Forecast: 67 / 84 °F
Wind: 3 mph from Southwest

Location: University Of Illinois-Willard Airport

Current Time: Aug 27, 2014 at 6:16:17 AM

Latest Report: Aug 27, 2014 at 4:53 AM


Visibility: 10 mi

Pressure: 30.07 "Hg

Humidity: 90%

Dew point: 65 °F

Location of UrbanaLocation

Historic Weather in Urbana — Graph

°F

Urbana temperature yesterday

Maximum temperature yesterday: 89 °F (at 12:53 PM)
Minimum temperature yesterday: 66 °F (at 3:53 AM)
Average temperature yesterday: 77 °F

Past Weeks' High & Low Weather Summary

 TemperatureHumidityPressure
High91 °F (Aug 25, 2:53 PM)100% (Aug 18, 3:53 AM)30.11 "Hg (Aug 18, 3:53 AM)
Low51 °F (Aug 15, 4:53 AM)48% (Aug 14, 4:53 PM)29.76 "Hg (Aug 19, 2:53 PM)
Average73 °F84%29.96 "Hg
* Reported Aug 12 4:53 AM — Aug 27 4:53 AM, Urbana, Weather by CustomWeather, © 2014

Note: Actual official high and low records may vary slightly from our data, if they occured in-between our weather recording intervals... More about our weather records

Advertising

Urbana weather history for previous 24 hours

 ConditionsComfort  
Time TempWeatherWind HumidityBarometerVisibility
4:53 AM
Aug 27
68 °FPassing clouds.3 mph90%30.07 "Hg10 mi
3:53 AM69 °FClear.3 mph87%30.08 "Hg10 mi
2:53 AM68 °FClear.5 mph90%30.07 "Hg10 mi
1:53 AM70 °FClear.5 mph87%30.08 "Hg10 mi
12:53 AM70 °FClear.No wind87%30.10 "Hg10 mi
11:53 PM
Aug 26
72 °FClear.No wind81%30.09 "Hg10 mi
10:53 PM71 °FClear.3 mph87%30.07 "Hg10 mi
10:03 PM72 °FClear.3 mph84%30.10 "Hg10 mi
9:53 PM72 °FThunderstorms. Passing clouds.3 mph84%30.06 "Hg10 mi
8:53 PM74 °FThunderstorms. Passing clouds.6 mph79%30.06 "Hg10 mi
8:01 PM74 °FThunderstorms. Scattered clouds.7 mph91%30.08 "Hg10 mi
7:53 PM75 °FSunny.No wind88%30.04 "Hg10 mi
6:53 PM77 °FScattered clouds.7 mph77%30.03 "Hg10 mi
5:53 PM80 °FThunderstorms. Sunny.14 mph74%30.04 "Hg10 mi
5:28 PM89 °FThunderstorms. Passing clouds.13 mph65%30.04 "Hg10 mi
4:53 PM89 °FThunderstorms. Passing clouds.No wind65%30.04 "Hg10 mi
3:53 PM88 °FPassing clouds.No wind67%30.06 "Hg10 mi
2:53 PM89 °FPassing clouds.6 mph70%30.06 "Hg10 mi
2:03 PM88 °FPassing clouds.9 mph70%30.09 "Hg10 mi
1:53 PM86 °FThundershowers. Broken clouds.8 mph72%30.06 "Hg10 mi
12:53 PM89 °FPartly sunny.5 mph70%30.08 "Hg10 mi
11:53 AM88 °FSunny.9 mph73%30.09 "Hg10 mi
10:53 AM86 °FSunny.8 mph75%30.10 "Hg9 mi
9:53 AM82 °FPassing clouds.7 mph79%30.11 "Hg8 mi
8:53 AM78 °FSunny.9 mph84%30.11 "Hg8 mi
7:53 AM73 °FSunny.5 mph90%30.11 "Hg8 mi
6:53 AM67 °FFog.5 mph97%30.10 "Hg4 mi
Weather by CustomWeather, © 2014

See weather overviewHow to use our weather pages